Location: Balagbag Mahabang Kahoy
(14.1562°N, 120.9200°E)
Time: 22:19:10
(UTC+00:00)

Sich 1 - Visible Passes

Search period start: 18 April 2026 00:00
Search period end: 28 April 2026 00:00
Orbit: 571 x 597 km, 82.5° (Epoch: 18 April)

Date Brightness Start Highest point End Pass type
(mag) Time Alt. Az. Time Alt. Az. Time Alt. Az.
18 Apr 5.6 19:47:45 10° NE 19:50:44 19° E 19:53:43 10° SE visible
19 Apr 4.8 19:53:24 10° NNE 19:57:03 30° E 20:00:42 10° SSE visible
20 Apr 3.7 19:59:20 10° N 20:03:19 49° E 20:07:19 10° SSE visible
21 Apr 2.8 20:05:28 10° N 20:09:35 83° E 20:13:43 10° S visible
22 Apr 2.8 20:11:47 10° NNW 20:15:50 59° W 20:16:36 49° SW visible
23 Apr 3.9 20:18:18 10° NNW 20:20:55 29° WNW 20:20:55 29° WNW visible
24 Apr 5.0 20:25:04 10° NW 20:25:46 13° NW 20:25:46 13° NW visible
